TimeCDT,TemperatureF,Dew PointF,Humidity,Sea Level PressureIn,VisibilityMPH,Wind Direction,Wind SpeedMPH,Gust SpeedMPH,PrecipitationIn,Events,Conditions,WindDirDegrees,DateUTC
12:53 AM,73.9,61.0,64,29.93,10.0,SSE,12.7,-,N/A,,Clear,150,2013-07-12 05:53:00
1:53 AM,73.9,60.1,62,29.93,10.0,SSE,13.8,-,N/A,,Clear,160,2013-07-12 06:53:00
2:53 AM,73.9,59.0,59,29.91,10.0,SSE,15.0,-,N/A,,Scattered Clouds,160,2013-07-12 07:53:00
3:53 AM,72.0,60.1,66,29.90,10.0,SSE,11.5,-,N/A,,Clear,160,2013-07-12 08:53:00
4:53 AM,71.1,60.1,68,29.90,10.0,SSE,11.5,-,N/A,,Clear,150,2013-07-12 09:53:00
5:53 AM,69.1,61.0,75,29.91,10.0,SSE,9.2,-,N/A,,Clear,160,2013-07-12 10:53:00
6:53 AM,70.0,60.1,71,29.90,10.0,SSE,11.5,-,N/A,,Clear,160,2013-07-12 11:53:00
7:53 AM,72.0,61.0,68,29.91,10.0,SSE,12.7,-,N/A,,Clear,160,2013-07-12 12:53:00
8:53 AM,75.9,63.0,64,29.91,10.0,South,12.7,21.9,N/A,,Clear,170,2013-07-12 13:53:00
9:53 AM,81.0,64.0,56,29.90,10.0,South,11.5,-,N/A,,Clear,170,2013-07-12 14:53:00
10:53 AM,84.9,66.0,53,29.89,10.0,SSE,11.5,-,N/A,,Clear,160,2013-07-12 15:53:00
11:53 AM,88.0,68.0,51,29.88,10.0,SSE,15.0,-,N/A,,Clear,150,2013-07-12 16:53:00
12:53 PM,89.1,69.1,52,29.87,10.0,SE,16.1,23.0,N/A,,Clear,140,2013-07-12 17:53:00
1:53 PM,91.9,70.0,48,29.86,10.0,SE,16.1,21.9,N/A,,Clear,140,2013-07-12 18:53:00
2:53 PM,93.9,70.0,46,29.85,10.0,SE,19.6,25.3,N/A,,Clear,140,2013-07-12 19:53:00
3:53 PM,97.0,69.1,40,29.84,10.0,SSE,16.1,23.0,N/A,,Clear,150,2013-07-12 20:53:00
4:53 PM,96.1,69.1,41,29.83,10.0,SE,15.0,23.0,N/A,,Clear,140,2013-07-12 21:53:00
5:53 PM,96.1,69.1,41,29.81,10.0,SSE,18.4,26.5,N/A,,Clear,150,2013-07-12 22:53:00
6:53 PM,93.9,70.0,46,29.80,10.0,SE,13.8,23.0,N/A,,Clear,140,2013-07-12 23:53:00
7:53 PM,91.0,70.0,50,29.81,10.0,SE,15.0,-,N/A,,Clear,140,2013-07-13 00:53:00
8:53 PM,88.0,70.0,55,29.82,10.0,SE,12.7,-,N/A,,Clear,140,2013-07-13 01:53:00
9:53 PM,84.9,70.0,61,29.83,10.0,SE,10.4,-,N/A,,Clear,140,2013-07-13 02:53:00
10:53 PM,82.9,71.1,67,29.85,10.0,SSE,15.0,-,N/A,,Clear,150,2013-07-13 03:53:00
11:53 PM,82.0,71.1,69,29.85,10.0,SSE,12.7,-,N/A,,Clear,150,2013-07-13 04:53:00